Regional Weather Roundup
Issued by NWS

Home | Current Version | Previous Version | Text Only | Print | Product List | Glossary Off
Versions: 1 2 3 4 5 6 7 8 9 10 11 12 13 14 15 16 17 18 19 20 21 22 23 24 25 26 27 28 29 30 31 32 33 34 35 36 37 38 39 40 41 42 43 44 45 46 47 48 49 50

389
ASUS43 KLMK 112202
RWRKY
KENTUCKY REGIONAL WEATHER ROUNDUP
NATIONAL WEATHER SERVICE LOUISVILLE KY
500 PM EST MON DEC 11 2017

NOTE "FAIR" INDICATES FEW OR NO CLOUDS BELOW 12,000 FEET
WITH NO SIGNIFICANT WEATHER AND/OR OBSTRUCTIONS TO VISIBILITY.

KYZ001>023-026-027-061>063-070>075-112300-
WESTERN AND SOUTH CENTRAL KENTUCKY

CITY           SKY/WX    TMP DP  RH WIND       PRES   REMARKS
PADUCAH        CLOUDY    62  27  26 SW13G24   29.79R
HENDERSON      CLOUDY    54  33  45 SW14      29.76R
OWENSBORO      CLEAR     53  33  46 S17G25    29.77R
HOPKINSVILLE   PTCLDY    58  28  31 S16       29.78F
BOWLING GREEN  CLEAR     56  31  38 S18G26    29.79F
GLASGOW        NOT AVBL
$$

KYZ024-025-028>034-038-045-046-053-112300-
NORTH CENTRAL KENTUCKY

CITY           SKY/WX    TMP DP  RH WIND       PRES   REMARKS
LOUISVILLE/SDF MOCLDY    53  29  39 S13       29.73F
LOUISVILLE/LOU CLEAR     52  30  43 S15       29.73F
FORT KNOX      CLEAR     51  29  42 S16       29.72F
$$

KYZ035>037-039>044-047>052-055>060-089>105-112300-
NORTHEAST KENTUCKY

CITY           SKY/WX    TMP DP  RH WIND       PRES   REMARKS
LEXINGTON      MOCLDY    50  29  44 S14       29.77F
COVINGTON      CLOUDY    45  30  55 S7        29.73F
FRANKFORT      PTCLDY    51  27  39 S10       29.75F
$$

KYZ054-064>069-076>088-106>120-112300-
SOUTHEAST KENTUCKY

CITY           SKY/WX    TMP DP  RH WIND       PRES   REMARKS
JACKSON        CLEAR     51  26  37 VRB5      29.82F
LONDON         CLEAR     53  27  36 S10       29.84F
SOMERSET       NOT AVBL
MIDDLESBORO    CLEAR     50  29  45 S3        29.92S
MONTICELLO     CLEAR     52  31  44 S3        29.85F
$$





USA.gov is the U.S. government's official web portal to all federal, state and local government web resources and services.